GOES 17 (43226 NORAD) Tracking and Keplerian Element Data

This shows tracking and keplerian element data for the satellite.

Feedback or suggestion? Click here.




ElementValue
Catalog43226
NameGOES 17
Epoch Orbit1206
Epoch Day164.65580109
Epoch Year2021
RAAN243.742
Inclination0.056
Eccentricity1.69E-05
Argument of Perigee162.6518
Mean Anonmoly314.6774
Mean Motion1.0027235
Decay Rate1.08E-06
L11 43226U 18022A 21164.65580109 .00000108 00000-0 00000-0 0 9997
L22 43226 0.0560 243.7420 0000169 162.6518 314.6774 1.00272350 12068

Live tracking and technical data element details for GOES 17 (NORAD 43226). GOES 17 can be tracked NOW for your location showing map with azimuth and elevation plus other details from your city location.

Track the satellite on the map from your city or location and see movement details for azimuth, elevation, latitude, longitude, range, height, and movement on the map or in text.







IsCatalogInMostPopularTable: catalog: 43226, numindb: 727
Update: records affected: 1



GetName: 43226 GOES 17

Hit Count: updated at: Tue, 15 Jun 2021 06:31:06 GMT